{"data":{"norad_id":57949,"intl_designator":"2023-148Q","name":"STARLINK-30707","alt_names":[],"object_type":"PAYLOAD","status":"ACTIVE","operator":null,"country":"US","launch_date":"2023-09-25","launch_site_code":"AFWTR","launch_vehicle":null,"mission":null,"orbit_class":"UNKNOWN","rcs_meters":null,"size_class":null,"mass_kg":null,"dimensions":null,"purposes":["comms"],"wikipedia_slug":null,"has_3d_model":false,"image_url":null,"decayed_at":null,"tle_current":{"epoch":"2026-09-20T10:37:51.722400Z","epoch_age_seconds":142603,"freshness":"FRESH","line1":"1 57949U 23148Q   26263.44295975  .00002412  00000+0  82520-4 0  9995","line2":"2 57949  53.1614 195.8655 0001447  60.0912 300.0234 15.34391827168290","mean_motion":15.34391827,"eccentricity":0.0001447,"inclination_deg":53.1614,"raan_deg":195.8655,"arg_perigee_deg":60.0912,"mean_anomaly_deg":300.0234,"bstar":8.252e-5,"rev_number":16829,"period_min":93.848257965206,"perigee_km":461.7376590955,"apogee_km":463.71740529112,"semimajor_km":6840.8645321933,"source":"CELESTRAK","updated_at":"2026-09-21T09:00:33.746877Z"}}}